Theta_e
297 298 297 291 289 293 288 285 286 289 297 304 308 315 324 321 324 328 330 330 330 332 334 334 334 334 339 342 343 345 346 345
296 297 296 295 296 288 285 283 282 287 293 297 307 312 322 321 323 327 331 330 331 331 333 336 335 335 339 343 343 345 346 346
291 290 291 291 289 288 289 287 285 284 290 306 309 311 319 322 325 327 330 330 331 331 334 336 337 336 337 342 343 344 345 346
286 290 295 293 292 292 289 285 286 287 293 302 311 311 320 323 326 328 331 331 332 334 333 335 336 337 336 340 343 345 346 346
284 287 291 289 291 289 288 287 289 287 290 302 306 311 314 321 325 328 329 331 332 334 334 335 335 337 337 338 342 345 346 346
281 284 290 292 295 292 289 285 286 287 291 297 301 303 311 315 325 327 328 330 332 333 334 336 336 337 339 338 341 344 345 345
289 291 292 293 295 296 291 292 290 293 292 297 300 303 308 316 319 322 324 328 330 332 334 336 337 337 339 340 340 342 343 344
286 293 294 294 297 298 297 297 294 294 294 301 315 314 315 317 319 318 321 324 329 332 335 335 337 337 340 340 341 342 341 342
283 288 291 290 295 298 304 310 308 298 301 314 317 318 315 317 322 322 322 323 325 330 334 336 337 339 338 341 342 341 341 342
282 286 283 292 303 307 307 312 314 314 318 322 323 324 323 322 324 325 327 326 327 327 334 337 339 340 340 341 342 342 342 342
281 280 288 297 302 304 302 305 311 312 320 325 327 320 316 322 326 325 327 326 330 333 335 339 339 341 340 339 341 342 342 343
281 280 282 292 307 311 310 300 312 313 319 323 322 308 310 330 332 327 327 330 330 335 337 338 340 341 339 338 339 340 342 343
282 282 286 304 308 311 297 299 310 314 320 323 321 324 328 334 327 324 326 328 332 336 336 338 340 340 338 339 339 342 344 344
282 281 281 306 308 301 306 311 313 317 321 321 324 327 328 331 332 337 338 329 330 334 336 339 340 340 338 338 342 344 344 344
288 285 304 305 308 311 311 312 313 313 321 322 322 325 326 329 331 335 337 342 331 332 335 337 339 340 338 339 341 341 343 343
293 299 298 302 307 310 311 314 315 316 322 323 321 323 325 327 331 333 335 337 339 332 332 333 337 340 340 341 341 340 341 342
293 299 298 305 303 307 312 315 315 315 322 321 323 322 324 326 326 330 332 336 338 340 336 334 335 337 340 339 341 340 341 341
291 298 298 298 305 309 310 313 314 313 319 322 322 323 324 324 326 327 328 333 332 332 335 339 339 339 340 339 341 341 340 340
297 302 301 304 307 310 309 313 315 316 318 319 322 324 324 324 324 323 325 328 326 326 328 330 330 329 332 340 339 340 339 340
Wind_Speed
5 5 10 4 4 7 5 1 2 5 8 10 9 9 4 6 12 18 22 22 23 21 20 20 20 20 20 17 16 14 14 10
4 5 2 9 9 4 3 7 6 6 6 8 7 7 2 5 10 16 19 19 19 20 21 19 19 19 19 18 19 15 14 12
3 5 9 2 3 5 5 6 7 2 9 8 10 11 8 8 13 16 20 20 20 20 20 21 20 19 19 18 17 15 14 13
10 4 2 5 11 10 7 6 3 4 14 5 9 5 6 9 12 12 16 17 15 16 16 18 20 20 20 19 18 17 15 13
7 6 6 2 2 5 5 4 12 5 9 2 6 9 7 10 9 11 12 16 16 16 18 19 19 19 20 20 19 18 15 14
6 3 1 4 3 4 7 5 6 8 6 8 14 10 8 8 8 11 13 17 17 18 19 19 19 19 19 19 19 18 17 16
6 9 3 5 6 6 5 6 8 7 9 10 12 11 10 9 6 10 12 15 19 20 21 20 19 18 18 18 18 18 17 17
5 2 2 6 9 9 8 4 8 2 8 4 9 9 8 11 8 11 13 19 20 19 19 22 22 20 19 18 18 17 17 18
5 6 7 3 6 5 3 5 2 3 5 7 12 14 11 12 10 15 17 16 15 20 23 21 22 21 22 21 17 17 18 16
4 6 2 4 7 2 5 4 2 5 10 12 12 17 19 14 7 14 8 9 12 14 17 21 20 20 16 16 17 18 17 17
2 2 7 2 7 7 6 4 10 14 16 17 15 9 8 3 5 8 8 7 7 9 11 14 18 17 17 17 17 17 17 16
2 2 6 3 13 11 7 4 15 15 16 18 15 5 4 20 18 14 8 6 7 7 8 13 13 14 16 16 17 18 17 17
3 3 7 11 20 13 6 5 20 16 15 14 8 6 16 17 15 8 5 6 6 10 14 14 13 15 16 14 18 20 18 16
2 2 7 16 7 7 7 11 14 14 14 13 14 13 14 14 14 13 12 9 7 9 11 11 13 15 16 16 20 14 13 13
4 4 4 8 9 7 10 9 10 12 15 14 13 13 14 14 16 15 15 11 5 7 8 9 13 16 16 21 11 12 12 13
5 2 8 9 8 10 11 13 14 16 13 12 12 13 13 12 13 14 15 15 10 4 3 4 5 11 15 8 10 13 14 13
5 5 13 5 11 16 15 14 16 17 12 14 12 11 12 12 13 13 13 14 15 12 9 5 4 5 4 6 10 10 10 9
3 5 5 12 13 17 15 16 17 18 14 13 12 11 11 9 12 13 14 15 16 17 15 15 12 9 7 4 10 12 12 10
4 8 13 18 17 13 14 14 16 14 11 12 11 9 9 7 11 13 15 16 16 16 14 15 14 13 13 12 6 9 10 9
Wind_Direction
200 149 136 188 142 187 116 21 21 249 284 302 275 276 313 237 181 187 189 189 187 184 185 183 182 185 189 189 197 193 194 187
253 93 310 155 170 90 356 171 251 278 266 240 304 295 231 178 185 183 188 189 188 185 184 187 187 181 187 193 193 194 196 191
82 189 176 144 160 59 132 150 184 186 255 213 243 261 212 205 195 191 190 187 187 188 188 186 184 183 188 189 197 194 194 195
219 258 281 184 181 181 198 247 227 184 258 255 245 283 232 224 206 195 191 191 190 187 190 186 188 187 188 192 190 198 193 193
356 357 359 73 245 144 113 107 217 214 269 286 301 295 235 243 202 195 187 184 185 186 187 191 192 192 191 190 195 193 190 192
188 200 220 307 310 204 145 148 180 223 257 290 289 273 272 252 210 185 185 185 184 186 192 193 192 194 193 194 193 191 189 193
255 258 256 251 264 275 231 202 181 224 207 243 251 270 256 254 212 184 190 191 193 195 194 192 193 193 196 196 193 190 190 191
295 294 332 269 257 249 239 259 269 265 260 208 288 292 274 246 212 216 201 204 204 201 192 193 192 193 192 195 194 187 193 196
275 349 330 280 245 226 146 52 298 253 270 324 309 299 271 259 212 227 222 206 202 200 197 194 192 189 192 191 185 189 191 197
262 340 171 236 358 31 152 128 340 302 313 305 285 279 280 260 250 257 268 222 206 203 198 197 190 193 188 185 187 188 195 195
108 269 290 108 31 355 354 299 27 345 329 331 321 293 286 20 293 264 243 248 236 209 195 180 188 186 183 180 184 189 194 196
119 173 224 69 331 312 280 261 0 337 327 339 351 348 281 334 321 294 258 218 191 169 165 177 182 177 182 181 182 191 196 196
213 256 287 351 329 315 155 307 318 323 325 330 340 306 306 318 333 325 300 247 180 169 179 183 168 170 186 185 192 198 194 193
152 186 276 358 341 39 307 294 312 322 325 327 322 327 339 343 343 343 344 329 194 182 182 172 172 173 183 192 203 188 188 190
235 221 13 326 317 333 315 324 327 314 325 332 331 338 341 344 358 360 1 351 323 208 170 171 176 183 183 213 176 171 178 187
333 50 325 301 314 334 339 345 333 332 326 334 332 335 345 351 356 4 9 11 9 46 141 178 184 193 212 180 168 169 187 188
263 326 326 201 325 321 345 344 343 339 337 345 333 342 345 356 356 359 5 12 29 41 43 3 147 178 194 157 152 177 183 190
253 338 277 276 300 316 339 347 336 333 342 350 345 351 350 5 1 3 7 20 23 22 28 36 46 30 352 256 191 186 189 190
277 309 297 278 286 310 328 334 330 334 355 353 347 2 358 359 21 9 16 20 26 21 15 26 22 16 0 343 251 196 194 185